User: anonymous   Login
Location: Unspecified
(0.0000°N, 0.0000°E)
Time: 19:31:06
(UTC+02:00)
Language:

IUS-9 SRM-1 - Orbit

View from above orbital plane
View from above orbital plane
View from above satellite
View from above satellite

Ground track
Ground track

The orbit data is extracted from the following two-line orbital elements,

1 19884U 89021C   18115.97989564  .00008336  00000-0  50292-3 0  9994
2 19884  26.3776 109.8887 5921035  12.3652 357.4308  4.21402164347051
Epoch (UTC): 25 April 2018 23:31:02
Eccentricity: 0.5921035
inclination: 26.3776°
perigee height: 226 km
apogee height: 19399 km
right ascension of ascending node: 109.8887°
argument of perigee: 12.3652°
revolutions per day: 4.21402164
mean anomaly at epoch: 357.4308°
orbit number at epoch: 34705

The dashed part of the orbit path shows where the satellite is in the earth's shadow,  

DLR